Location: Ottawa
(45.4170°N, 75.7000°W)
Time: 07:18:14
(UTC-05:00)

ISS - Pass Details

Date: 12 February 2026
Orbit: 416 x 427 km, 51.6° (Epoch: 6 March)

Event Time Altitude Azimuth Distance (km) Brightness Sun altitude
Rises 06:27:11 0° 222° (SW) 2,348 -0.3 -7.9°
Reaches altitude 10° 06:29:19 10° 216° (SW) 1,487 -1.2 -7.5°
Maximum altitude 06:32:30 43° 143° (SE) 598 -2.5 -7.0°
Drops below altitude 10° 06:35:42 10° 71° (ENE) 1,492 0.1 -6.4°
Sets 06:37:51 0° 64° (ENE) 2,358 1.0 -6.1°
